STARLINK-11748 [DTC]

Last updated on Thu Jul 03 2025 00:02:06 GMT+0000 (Coordinated Universal Time)

1 64373U 25127D 25183.58335648 -.00101800 00000+0 -58756-3 0 9996 2 64373 43.0006 154.8840 0001680 259.1593 189.4526 15.77914058 4092
UTC large
Height (km)
Speed (km/s)
/
Latitude / Longitude
Inclination (degrees)
Orbital Period (minutes)
Azimuth
Elevation
Range (km)
Doppler Factor

Next 0 passes for location: London (51.5072 / 0.1276)

Sorry there are no passes over London.